Location: La Silve
(44.2414°N, 5.8889°E)
Time: 09:35:40
(UTC+00:00)

Cosmos 1943 - Pass Details

Date: 01 December 2020
Orbit: 832 x 851 km, 71.0° (Epoch: 25 January)

Event Time Altitude Azimuth Distance (km) Brightness Sun altitude
Rises 17:49:21 0° 201° (SSW) 3,377 6.8 -19.2°
Reaches altitude 10° 17:51:46 10° 200° (SSW) 2,449 6.0 -19.6°
Maximum altitude 17:57:24 83° 114° (ESE) 855 3.1 -20.6°
Enters shadow 18:00:39 27° 28° (NNE) 1,584 4.3 -21.2°
